{"data":{"norad_id":60538,"intl_designator":"2024-149BY","name":"PICO-02A021","alt_names":[],"object_type":"PAYLOAD","status":"ACTIVE","operator":null,"country":"IT","launch_date":"2024-08-16","launch_site_code":"AFWTR","launch_vehicle":null,"mission":null,"orbit_class":"UNKNOWN","rcs_meters":null,"size_class":null,"mass_kg":null,"dimensions":null,"purposes":[],"wikipedia_slug":null,"has_3d_model":false,"image_url":null,"decayed_at":null,"tle_current":{"epoch":"2026-09-21T11:01:26.239872Z","epoch_age_seconds":206298,"freshness":"STALE","line1":"1 60538U 24149BY  26264.45933148  .00002152  00000+0  16018-3 0  9997","line2":"2 60538  97.6679 342.4769 0005957  60.5597 299.6222 15.03998051114202","mean_motion":15.03998051,"eccentricity":0.0005957,"inclination_deg":97.6679,"raan_deg":342.4769,"arg_perigee_deg":60.5597,"mean_anomaly_deg":299.6222,"bstar":0.00016018,"rev_number":11420,"period_min":95.744804924618,"perigee_km":550.45316000983,"apogee_km":558.71280259555,"semimajor_km":6932.7199813027,"source":"CELESTRAK","updated_at":"2026-09-23T09:00:20.670539Z"}}}